Stündliche Wetter Kyzylkiya

Heute, 11 Mai, Dienstag

Zeit Temperatur Niederschläge Wind Luftdruck Luftfeuchtigkeit
00:00 +18°C° 0 mm 2 m/S 713 mmHg 71%
01:00 +18°C° 0 mm 1 m/S 713 mmHg 73%
02:00 +18°C° 0 mm 1 m/S 713 mmHg 75%
03:00 +16°C° 0 mm 1 m/S 713 mmHg 77%
04:00 +16°C° 0 mm 1 m/S 713 mmHg 79%
05:00 +15°C° 0 mm 1 m/S 714 mmHg 80%
06:00 +18°C° 0 mm 1 m/S 714 mmHg 75%
07:00 +19°C° 0 mm 1 m/S 714 mmHg 70%
08:00 +21°C° 0 mm 1 m/S 715 mmHg 65%
09:00 +21°C° 0 mm 2 m/S 715 mmHg 57%
10:00 +23°C° 0 mm 2 m/S 716 mmHg 48%
11:00 +25°C° 0 mm 3 m/S 716 mmHg 39%
12:00 +26°C° 0 mm 3 m/S 716 mmHg 36%
13:00 +26°C° 0 mm 4 m/S 716 mmHg 33%
14:00 +26°C° 0 mm 4 m/S 716 mmHg 30%
15:00 +26°C° 0 mm 4 m/S 716 mmHg 31%
16:00 +26°C° 0 mm 4 m/S 716 mmHg 33%
17:00 +26°C° 0 mm 4 m/S 716 mmHg 34%
18:00 +24°C° 0 mm 3 m/S 716 mmHg 40%
19:00 +20°C° 0 mm 3 m/S 715 mmHg 45%
20:00 +18°C° 0 mm 2 m/S 715 mmHg 50%
21:00 +18°C° 0 mm 2 m/S 715 mmHg 50%
22:00 +17°C° 0 mm 2 m/S 715 mmHg 50%
23:00 +17°C° 0 mm 2 m/S 715 mmHg 50%

Morgen, 12 Mai, Mittwoch

Zeit Temperatur Niederschläge Wind Luftdruck Luftfeuchtigkeit
00:00 +16°C° 0 mm 2 m/S 714 mmHg 50%
01:00 +16°C° 0 mm 2 m/S 714 mmHg 50%
02:00 +16°C° 0 mm 2 m/S 714 mmHg 50%
03:00 +16°C° 0 mm 2 m/S 714 mmHg 50%
04:00 +15°C° 0 mm 2 m/S 714 mmHg 51%
05:00 +15°C° 0 mm 2 m/S 714 mmHg 52%
06:00 +17°C° 0 mm 2 m/S 714 mmHg 50%
07:00 +19°C° 0 mm 2 m/S 714 mmHg 48%
08:00 +22°C° 0 mm 1 m/S 714 mmHg 46%
09:00 +23°C° 0 mm 2 m/S 715 mmHg 43%
10:00 +24°C° 0 mm 2 m/S 715 mmHg 40%
11:00 +25°C° 0 mm 3 m/S 715 mmHg 37%
12:00 +26°C° 0 mm 3 m/S 715 mmHg 36%
13:00 +27°C° 0 mm 3 m/S 714 mmHg 35%
14:00 +27°C° 0 mm 4 m/S 714 mmHg 34%
15:00 +27°C° 0 mm 4 m/S 714 mmHg 37%
16:00 +26°C° 0 mm 5 m/S 714 mmHg 41%
17:00 +26°C° 0 mm 6 m/S 713 mmHg 44%
18:00 +23°C° 0 mm 6 m/S 713 mmHg 48%
19:00 +21°C° 0 mm 5 m/S 713 mmHg 52%
20:00 +19°C° 0 mm 5 m/S 712 mmHg 56%
21:00 +18°C° 0 mm 4 m/S 712 mmHg 57%
22:00 +18°C° 0 mm 4 m/S 712 mmHg 57%
23:00 +17°C° 0 mm 3 m/S 712 mmHg 58%

übermorgen, 13 Mai, Donnerstag

Zeit Temperatur Niederschläge Wind Luftdruck Luftfeuchtigkeit
00:00 +17°C° 0 mm 3 m/S 712 mmHg 57%
01:00 +16°C° 0 mm 3 m/S 711 mmHg 57%
02:00 +16°C° 0 mm 2 m/S 711 mmHg 57%
03:00 +16°C° 0 mm 2 m/S 711 mmHg 57%
04:00 +15°C° 0 mm 2 m/S 712 mmHg 58%
05:00 +15°C° 0 mm 2 m/S 712 mmHg 58%
06:00 +17°C° 0 mm 2 m/S 712 mmHg 55%
07:00 +18°C° 0 mm 2 m/S 713 mmHg 52%
08:00 +20°C° 0 mm 2 m/S 713 mmHg 50%
09:00 +21°C° 0 mm 2 m/S 713 mmHg 47%
10:00 +23°C° 0 mm 2 m/S 713 mmHg 45%
11:00 +25°C° 0 mm 2 m/S 714 mmHg 42%
12:00 +26°C° 0 mm 2 m/S 713 mmHg 41%
13:00 +26°C° 0 mm 3 m/S 713 mmHg 40%
14:00 +27°C° 0 mm 4 m/S 713 mmHg 39%
15:00 +27°C° 0 mm 4 m/S 713 mmHg 39%
16:00 +26°C° 0 mm 4 m/S 713 mmHg 40%
17:00 +26°C° 0 mm 4 m/S 712 mmHg 41%
18:00 +23°C° 0 mm 4 m/S 712 mmHg 44%
19:00 +21°C° 0 mm 4 m/S 712 mmHg 48%
20:00 +18°C° 0 mm 4 m/S 712 mmHg 51%
21:00 +18°C° 0 mm 3 m/S 712 mmHg 54%
22:00 +17°C° 0 mm 3 m/S 712 mmHg 56%
23:00 +17°C° 0 mm 3 m/S 712 mmHg 58%

14 Mai, Freitag

Zeit Temperatur Niederschläge Wind Luftdruck Luftfeuchtigkeit
00:00 +17°C° 0 mm 3 m/S 712 mmHg 59%
01:00 +17°C° 0 mm 3 m/S 712 mmHg 60%
02:00 +17°C° 0 mm 2 m/S 712 mmHg 62%
03:00 +16°C° 0 mm 2 m/S 712 mmHg 61%
04:00 +16°C° 0 mm 2 m/S 712 mmHg 61%
05:00 +16°C° 0 mm 1 m/S 712 mmHg 61%
06:00 +17°C° 0 mm 2 m/S 713 mmHg 57%
07:00 +19°C° 0 mm 2 m/S 713 mmHg 52%
08:00 +21°C° 0 mm 2 m/S 714 mmHg 48%
09:00 +23°C° 0 mm 2 m/S 714 mmHg 45%
10:00 +24°C° 0 mm 2 m/S 714 mmHg 42%
11:00 +26°C° 0 mm 2 m/S 714 mmHg 40%
12:00 +27°C° 0 mm 2 m/S 714 mmHg 38%
13:00 +28°C° 0 mm 3 m/S 714 mmHg 37%
14:00 +29°C° 0 mm 3 m/S 713 mmHg 36%
15:00 +28°C° 0 mm 3 m/S 713 mmHg 36%
16:00 +28°C° 0 mm 3 m/S 713 mmHg 37%
17:00 +28°C° 0 mm 3 m/S 713 mmHg 37%
18:00 +26°C° 0 mm 3 m/S 712 mmHg 43%
19:00 +22°C° 0 mm 3 m/S 712 mmHg 50%
20:00 +20°C° 0 mm 2 m/S 712 mmHg 56%
21:00 +19°C° 0 mm 2 m/S 711 mmHg 57%
22:00 +19°C° 0 mm 2 m/S 711 mmHg 58%
23:00 +18°C° 0 mm 2 m/S 711 mmHg 59%

15 Mai, Samstag

Zeit Temperatur Niederschläge Wind Luftdruck Luftfeuchtigkeit
00:00 +18°C° 0 mm 2 m/S 711 mmHg 59%
01:00 +18°C° 0 mm 2 m/S 711 mmHg 59%
02:00 +18°C° 0 mm 2 m/S 711 mmHg 60%
03:00 +18°C° 0 mm 2 m/S 711 mmHg 59%
04:00 +18°C° 0 mm 2 m/S 711 mmHg 59%
05:00 +18°C° 0 mm 2 m/S 711 mmHg 59%
06:00 +20°C° 0 mm 1 m/S 711 mmHg 55%
07:00 +22°C° 0 mm 1 m/S 712 mmHg 52%
08:00 +24°C° 0 mm 1 m/S 712 mmHg 48%
09:00 +25°C° 0 mm 1 m/S 712 mmHg 45%
10:00 +27°C° 0 mm 1 m/S 712 mmHg 42%
11:00 +28°C° 0 mm 2 m/S 712 mmHg 39%
12:00 +29°C° 0 mm 2 m/S 712 mmHg 37%
13:00 +30°C° 0 mm 2 m/S 712 mmHg 36%
14:00 +30°C° 0 mm 3 m/S 712 mmHg 34%
15:00 +30°C° 0 mm 3 m/S 711 mmHg 35%
16:00 +30°C° 0 mm 3 m/S 711 mmHg 36%
17:00 +29°C° 0 mm 3 m/S 711 mmHg 37%
18:00 +27°C° 0 mm 3 m/S 711 mmHg 45%
19:00 +24°C° 0 mm 2 m/S 710 mmHg 53%
20:00 +21°C° 0 mm 2 m/S 710 mmHg 61%
21:00 +21°C° 0 mm 2 m/S 710 mmHg 60%
22:00 +20°C° 0 mm 2 m/S 710 mmHg 60%
23:00 +19°C° 0 mm 2 m/S 710 mmHg 59%

16 Mai, Sonntag

Zeit Temperatur Niederschläge Wind Luftdruck Luftfeuchtigkeit
00:00 +19°C° 0 mm 2 m/S 709 mmHg 57%
01:00 +19°C° 0 mm 2 m/S 709 mmHg 55%
02:00 +19°C° 0 mm 3 m/S 709 mmHg 52%
03:00 +19°C° 0 mm 2 m/S 709 mmHg 51%
04:00 +19°C° 0 mm 2 m/S 710 mmHg 50%
05:00 +18°C° 0 mm 2 m/S 710 mmHg 48%
06:00 +20°C° 0 mm 2 m/S 710 mmHg 47%
07:00 +22°C° 0 mm 3 m/S 711 mmHg 46%
08:00 +24°C° 0 mm 3 m/S 711 mmHg 45%
09:00 +26°C° 0 mm 2 m/S 712 mmHg 42%
10:00 +27°C° 0 mm 2 m/S 712 mmHg 39%
11:00 +29°C° 0 mm 2 m/S 712 mmHg 36%
12:00 +29°C° 0 mm 2 m/S 712 mmHg 34%
13:00 +30°C° 0 mm 2 m/S 712 mmHg 32%
14:00 +31°C° 0 mm 2 m/S 711 mmHg 30%
15:00 +31°C° 0 mm 3 m/S 711 mmHg 33%
16:00 +30°C° 0 mm 4 m/S 711 mmHg 36%
17:00 +30°C° 0 mm 5 m/S 711 mmHg 39%
18:00 +27°C° 0 mm 4 m/S 711 mmHg 45%
19:00 +25°C° 0 mm 4 m/S 711 mmHg 51%
20:00 +21°C° 0 mm 3 m/S 711 mmHg 56%
21:00 +21°C° 0 mm 3 m/S 711 mmHg 54%
22:00 +20°C° 0 mm 3 m/S 711 mmHg 52%
23:00 +20°C° 0 mm 3 m/S 710 mmHg 50%
Mehr zeigen

Wir brauchen deine Erlaubnis

Meteoprog und unser Service Anbieter werden persönliche Daten aufbewahren, so wie Cookies, Geräte Bezeichnung oder ähnliche Technologien von deinem Gerät und Prozess, so wie Persönliche Daten Inhalte und Werbungen, genauso wie social Media und den Verkehr zu analysieren.

  • Aufbewahrung und/oder Zugang zu deiner Geräte Informationen.

    Cookies, Geräte Bezeichnung oder andere Informationen, können aufbewahrt oder Zugang zu deinem Gerät erhalten, für den Grund, der oben angegeben wird.

  • Personalisierte Werbung und Inhalte, Messungen, Einblick in das Publikum und Produkt Entwicklung.

    Werbungen und Inhalte können personalisiert werden, basierend auf ein Profil. Mehr Daten können besser personalisierte Werbungen und Inhalte hinzufügen. Werbung und Inhalte können gezeigt und gemessen werden. Einblicke über das Publikum, welche die Werbung gesehen haben und den Inhalt, können abgeleitet werden. So wie Daten können genutzt werden, um es zu verbessern oder die Benutzer Erfahrung zu verbessern das System und die Software.

Wenn du “Ich stimme zu” klickst, erlaubst du uns, die Cookies zu benutzen die Geräte Bezeichnung, den Web oder ähnliche Technologien zu benutzen. Deine Settings, können in deinem Gerät bei deinem Browser geändert werden.

Für den bestimmten Zweck, berechtigten Interessen beruhen darauf, mehr als auf den Inhalt. Du kannst mehr darüber in unseren Privaten und Cookie Politik lesen.